www.pogodaiklimat.ru

Погода и климат >> Архив погоды >> Россия >> Крым >> Ялта


АРХИВ ПОГОДЫ в Ялте

Время (UTC), дата Ветер
(напр.,м/с)
 
Видим.   Явления Облачность Т
(С)
Тd
(С)
f
(%)
Тe
(С)
Тes
(С)
Комфортность P
(гПа)
Po
(гПа)
Тmin
(С)
Tmax
(С)
R
(мм)
R24
(мм)
S
(см)
12 13.05 штиль 0 20 км 9/4 600 м
[Cu med, cong Ac trans]
+16.3 +12.1 76 +16 +18 по сезону 1021.9 1013.3
15 13.05 штиль 0 20 км 5/5 600 м
[Cu med, cong]
+15.6 +12.5 82 +15 +17 по сезону 1021.9 1013.3
18 13.05 штиль 0 20 км ясно +13.3 +12.0 92 +13 +13 по сезону 1022.0 1013.3 +17.4
21 13.05 З 1 20 км ясно +12.7 +11.3 91 +13 +13 по сезону 1022.0 1013.3
00 14.05 штиль 0 20 км ясно +11.9 +10.5 91 +11 +11 прохладно 1020.7 1012.0
03 14.05 З 1 20 км 8/0
[Ci sp]
+12.2 +10.5 89 +12 +12 прохладно 1020.0 1011.3 +11.9
06 14.05 ЮВ 1 20 км 4/1 1000 м
[Cu hum Ci sp]
+16.9 +12.8 77 +18 +26 по сезону 1020.1 1011.6 +11.9
09 14.05 Ю 1 20 км 8/3 300 м
[St Ci fib]
+17.6 +13.9 79 +19 +25 тепло 1021.9 1013.3
12 14.05 Ю 2 20 км 8/3 1000 м
[Cu med, cong Ac trans Ci sp]
+18.2 +10.8 62 +19 +23 по сезону 1020.5 1012.0
15 14.05 Ю 1 20 км 9/3 1000 м
[Cu med, cong Ac As Ci sp]
+16.7 +11.2 70 +18 +18 тепло 1020.6 1012.0
18 14.05 Ю 1 20 км 8/0
[Cc]
+14.5 +9.3 71 +15 +15 по сезону 1019.6 1011.0 +18.4
21 14.05 Ю 2 20 км 3/0
[Ci fib]
+14.6 +10.6 77 +14 +14 по сезону 1020.6 1012.0
00 15.05 ЮВ 1 20 км 3/0
[Ci fib]
+13.8 +9.8 77 +14 +14 по сезону 1019.4 1010.7
03 15.05 ЮВ 1 20 км 9/0
[Ci fib]
+13.5 +9.8 78 +14 +14 по сезону 1017.8 1009.2 +13.4
06 15.05 В 2 20 км 9/0
[Ci fib]
+18.5 +12.4 68 +20 +26 тепло 1018.2 1009.7 +13.4
09 15.05 В 2 20 км 9/0
[Ci sp]
+19.2 +10.5 57 +21 +22 комфорт 1019.2 1010.7
12 15.05 В 3 20 км 9/0
[Ci fib]
+19.6 +8.3 48 +21 +22 комфорт 1017.8 1009.3
15 15.05 СВ 1 20 км 9/0
[Ci fib]
+19.6 +9.2 51 +22 +22 комфорт 1016.5 1008.0
18 15.05 В 2 20 км 9/0
[Ci sp]
+20.0 +7.9 46 +22 +22 комфорт 1015.2 1006.8 +20.2
21 15.05 СВ 2 20 км 9/0
[Ci fib]
+22.0 +11.1 50 +24 +24 комфорт 1016.4 1008.0
00 16.05 В 2 20 км 8/0
[Ci fib]
+21.4 +12.3 56 +24 +24 комфорт 1015.1 1006.7
03 16.05 ЮЗ 1 20 км 3/0
[Ci fib]
+19.7 +12.2 62 +22 +23 комфорт 1012.7 1004.3 +18.5
06 16.05 В 4 20 км 3/0
[Ci fib]
+22.1 +14.5 62 +25 +31 комфорт 1012.2 1003.9 +19.7
09 16.05 В 6-10
{10}
20 км 1/0
[Ci fib]
+23.2 +13.6 55 +27 +33 душно 1012.3 1004.0
12 16.05 В 7-12
{13}
20 км 3/1 1000 м
[Cu med, cong Ci sp]
+23.5 +14.2 56 +26 +29 жарко 1011.8 1003.5
15 16.05 СВ 1
{12}
20 км 9/0
[Ac As Ci sp]
+23.1 +14.3 58 +27 +28 душно 1011.9 1003.6
18 16.05 СЗ 1 20 км 9/8 1000 м
[Cb calv Ac As Ci sp]
+22.0 +13.3 58 +25 +25 комфорт 1010.5 1002.2 +24.0
21 16.05 ЮВ 1 20 км 9/0
[Ac As Ci sp]
+22.6 +14.2 59 +26 +26 жарко 1013.6 1005.3
00 17.05 СЗ 1 20 км 9/0
[Ac lent Ci sp]
+20.5 +12.2 59 +24 +24 комфорт 1011.1 1002.7
03 17.05 СЗ 1 20 км 8/0
[Ac As Ci sp]
+21.2 +10.6 51 +23 +23 комфорт 1009.4 1001.1 +20.0
06 17.05 ЮВ 2 20 км 5/0
[Ac cast Cc]
+24.9 +15.3 55 +28 +34 жарко 1010.4 1002.2 +20.0
09 17.05 В 2 20 км 8/0
[Ac cast Ci fib]
+23.0 +16.8 68 +28 +33 душно 1012.3 1004.0
12 17.05 В 1 20 км 6/3 1000 м
[Cu med, cong Ac cast Cc]
+24.6 +16.6 61 +28 +35 душно 1011.0 1002.7
15 17.05 В 1 20 км 1/0
[Ci fib]
+23.7 +16.7 65 +27 +30 жарко 1009.6 1001.3
18 17.05 В 1 20 км 8/0
[Ci fib]
+20.7 +16.0 74 +25 +25 комфорт 1008.5 1000.2 +25.4
21 17.05 СВ 1 20 км 9/0
[Ci sp]
+18.8 +16.0 84 +21 +21 комфорт 1011.1 1002.7
00 18.05 В 1 20 км 9/0
[Ac As Ci sp]
+17.4 +15.6 89 +18 +18 тепло 1008.4 1000.0
03 18.05 В 1 20 км 9/3 1000 м
[Cb calv Ac As Cc]
+19.3 +13.5 69 +22 +22 комфорт 1005.2 996.9 +17.4
06 18.05 Ю 1 10 км 5/0
[Ac trans Ci sp]
+26.2 +17.7 60 +31 +39 очень
душно
1005.7 997.6 +17.4
09 18.05 Ю 1 10 км 8/0
[Ac cuf Ci sp]
+24.0 +17.5 67 +28 +34 душно 1006.9 998.7
12 18.05 Ю 1 10 км 4/0
[Ac cuf Cc]
+24.4 +16.9 63 +28 +38 душно 1005.5 997.3
15 18.05 штиль 0 20 км 5/1 1000 м
[Cu med, cong Ac cuf Cc]
+22.2 +16.2 69 +26 +28 душно 1007.0 998.7
18 18.05 СЗ 1 20 км 4/1 1000 м
[Cu hum Ac trans Ci fib]
+20.1 +16.3 79 +24 +24 комфорт 1005.3 997.0 +26.8
21 18.05 штиль 0 20 км 1/0
[Ci sp]
+18.5 +15.9 85 +19 +19 тепло 1007.1 998.7
00 19.05 СЗ 1 20 км 3/0
[Ac trans Ci sp]
+19.0 +14.0 73 +21 +21 комфорт 1005.7 997.3
03 19.05 З 1 20 км 9/8 1000 м
[Cb cap Ac trans]
+18.8 +15.6 82 +21 +21 комфорт 1006.5 998.1 +18.3
06 19.05 С 1 20 км {гроза, ливн. осадки} 9/8 1000 м
[Cb cap Ac As]
+19.6 +15.0 75 +23 +24 комфорт 1007.1 998.7 +18.3 0.9
09 19.05 С 1 20 км 10/3 300 м
[St Ac As]
+18.9 +15.8 82 +21 +21 комфорт 1009.7 1001.3
12 19.05 ЮВ 1 20 км 9/3 1000 м
[Sc Ac As Ci fib]
+20.2 +16.8 81 +24 +26 комфорт 1011.1 1002.7
15 19.05 Ю 1 2000 м дымка 3/3 300 м
[Sc]
+18.3 +15.9 86 +20 +22 тепло 1010.6 1002.2 0.9
18 19.05 ЮЗ 1 20 км 1/1 300 м
[St]
+16.7 +16.0 96 +18 +18 тепло 1011.5 1003.0 +22.1
21 19.05 СЗ 1 20 км 4/3 300 м
[St Ac cast]
+15.7 +14.9 95 +16 +16 по сезону 1012.5 1004.0
00 20.05 З 1 20 км 10/10 300 м
[St]
+16.7 +14.9 89 +18 +18 тепло 1013.8 1005.3
03 20.05 штиль 0 20 км 10/10 600 м
[Sc]
+17.1 +14.7 86 +17 +17 по сезону 1013.6 1005.1 +15.6
06 20.05 В 3 20 км 10/10 600 м
[Sc]
+17.7 +15.8 89 +18 +18 по сезону 1015.0 1006.5 +15.6
09 20.05 В 1 20 км 10 баллов +18.1 +15.4 84 +19 +19 по сезону 1016.5 1008.0

 

Местоположение метеостанции Ялта (Крым, Россия): широта 44.48 долгота 34.17 высота над уровнем моря 72 м.

В архиве по умолчанию представлена погода в Ялте за последнюю неделю. Архивные данные за месяц целиком и за предыдущие месяцы, начиная с января 2011 года, Вы можете получить, выбрав интересующий диапазон дат из раскрывающегося списка и нажав кнопку "Ввод!".


*Определитесь, кто Вы:
робот инопланетянин человек

Внимание! Время в таблицах - всемирное. Для получения местного времени необходимо прибавить поправку, которая равна 3 ч.

Смотрите также архив погоды в соседних городах и на ближайших метеорологических станциях:

Погода на Ай-Петри (Крым, Россия) (7 км)
Погода в Никитском саду (Крым, Россия) (8 км)
Погода в Алуште (Крым, Россия) (28 км)
Погода на Ангарском Перевале (Крым, Россия) (33 км)
Погода в Почтовом (Крым, Россия) (43 км)
Погода в Симферополе город (Крым, Россия) (52 км)
Погода в Севастополе (город Севастополь, Россия) (53 км)
Погода в Симферополе (Крым, Россия) (63 км)
Погода в Херсонесском Маяке (город Севастополь, Россия) (64 км)
Погода в Белогорске (Крым, Россия) (72 км)

Пояснения к столбцам:

Ветер - указаны скорость ветра в м/с - средняя за 10 мин, порывы в срок и между сроками (в фигурных скобках) и направление, откуда дует ветер: С - северный, СВ - северо-восточный, В - восточный, ЮВ - юго-восточный, Ю - южный, ЮЗ - юго-западный, З - западный, СЗ - северо-западный.
Видимость - горизонтальная дальность видимости в метрах или километрах. При видимости от 1 до 10 км при отсутствии осадков обычно наблюдается дымка, при ухудшении видимости до 1 км и менее - туман. В сухую погоду видимость может ухудшаться дымом, пылью или мглою.
Явления - указаны атмосферные явления, наблюдавшиеся в срок или в последний час перед сроком; фигурными скобками обозначены явления, наблюдавшиеся между сроками (за 1-3 часа до срока); квадратными скобками обозначены град или гололедные отложения с указанием их диаметра в мм.
Облачность - указаны через наклонную черту общая и нижняя облачность в баллах и высота нижней границы облаков в метрах; квадратными скобками обозначены формы облаков: Ci - перистые, Cs - перисто-слоистые, Cc - перисто-кучевые, Ac - высококучевые, As - высокослоистые, Sc - слоисто-кучевые, Ns - слоисто-дождевые, Cu - кучевые, Cb - кучево-дождевые. Подробнее классификацию облаков см. в Атласе облаков (PDF).
T - Температура воздуха - температура, измеренная на высоте 2 м над землей.
Td - Температура точки росы - температура, при понижении до которой содержащийся в воздухе водяной пар достигнет насыщения.
f - Относительная влажность воздуха - влажноcть воздуха, измеренная на высоте 2 м над землей.
Te - Эффективная температура - температура, которую ощущает одетый по сезону человек в тени. Характеристика душности погоды. При расчете учитывается влияние влажности воздуха и скорости ветра на теплоощущения человека.
Tes - Эффективная температура на солнце - температура, которую ощущает человек, с поправкой на солнечный нагрев. Характеристика знойности погоды. Зависит от высоты солнца над горизонтом, облачности и скорости ветра. Ночью, в пасмурную погоду, а также при ветре 12 м/с и более поправка равна нулю.
P - Атмосферное давление - приведенное к уровню моря атмосферное давление.
Po - Атмосферное давление - измеренное на уровне метеостанции атмосферное давление.
Tmin - Минимальная температура - минимум температуры воздуха на высоте 2 м над землей.
Tmax - Максимальная температура - максимум температуры воздуха на высоте 2 м над землей.
R - Количество осадков - Количество выпавших осадков за период времени, мм. При наведении курсора мыши на число - период времени, за который выпало указанное количество осадков.
R24 - Количество осадков - Количество выпавших осадков за 24 часа, мм.
S - Снежный покров - Высота снежного покрова, см. При наведении курсора мыши на число - состояние снежного покрова и степень покрытия местности в баллах.